QPF
0.03 0.02 0.03 0.04 0.06 0.06 0.08 0.08 0.06 0.07 0.12 0.13 0.11 0.06 0.03 0.02 0.03 0.02 0.02 0.03 0.04 0.05 0.06 0.06 0.06 0.05 0.04 0.03 0.02 0.02 0.02 0.01 0.02 0.01 0.01 0.01 0.01 0.01 0.01 0.00 0.00 0.01 0.01
0.05 0.04 0.04 0.05 0.06 0.07 0.06 0.08 0.06 0.06 0.10 0.13 0.12 0.09 0.05 0.03 0.02 0.02 0.02 0.02 0.03 0.03 0.04 0.05 0.05 0.05 0.05 0.04 0.03 0.02 0.01 0.01 0.01 0.02 0.01 0.01 0.01 0.01 0.01 0.01 0.01 0.01 0.01
0.08 0.08 0.07 0.07 0.08 0.07 0.06 0.06 0.07 0.06 0.08 0.11 0.12 0.10 0.07 0.04 0.03 0.03 0.02 0.03 0.02 0.02 0.03 0.03 0.04 0.05 0.05 0.04 0.03 0.02 0.01 0.01 0.01 0.01 0.01 0.01 0.01 0.01 0.01 0.00 0.01 0.01 0.02
0.10 0.10 0.10 0.11 0.11 0.08 0.07 0.04 0.06 0.05 0.07 0.09 0.11 0.11 0.09 0.06 0.03 0.02 0.02 0.02 0.03 0.02 0.02 0.02 0.03 0.03 0.04 0.04 0.04 0.02 0.02 0.01 0.01 0.01 0.02 0.02 0.02 0.01 0.01 0.01 0.01 0.01 0.01
0.09 0.11 0.11 0.13 0.15 0.14 0.09 0.06 0.05 0.05 0.07 0.08 0.08 0.11 0.12 0.09 0.05 0.03 0.02 0.02 0.02 0.02 0.02 0.02 0.02 0.02 0.02 0.03 0.04 0.03 0.02 0.02 0.02 0.02 0.03 0.02 0.02 0.02 0.02 0.02 0.01 0.01 0.01
0.06 0.09 0.10 0.12 0.15 0.18 0.17 0.12 0.09 0.07 0.07 0.08 0.08 0.08 0.10 0.10 0.08 0.04 0.02 0.02 0.02 0.02 0.02 0.02 0.02 0.02 0.02 0.02 0.03 0.03 0.02 0.02 0.02 0.02 0.02 0.03 0.03 0.02 0.02 0.02 0.02 0.02 0.02
0.03 0.05 0.07 0.09 0.13 0.16 0.19 0.19 0.16 0.13 0.10 0.08 0.08 0.07 0.07 0.09 0.08 0.06 0.03 0.03 0.03 0.03 0.02 0.02 0.02 0.02 0.02 0.02 0.02 0.03 0.03 0.03 0.02 0.02 0.02 0.03 0.03 0.03 0.02 0.02 0.02 0.02 0.01
0.03 0.03 0.05 0.06 0.09 0.12 0.14 0.18 0.19 0.16 0.16 0.12 0.09 0.08 0.07 0.08 0.08 0.07 0.06 0.04 0.04 0.03 0.02 0.02 0.03 0.03 0.04 0.03 0.04 0.04 0.04 0.04 0.03 0.03 0.03 0.03 0.03 0.03 0.03 0.02 0.02 0.03 0.03
0.03 0.03 0.04 0.06 0.07 0.08 0.10 0.13 0.16 0.16 0.15 0.14 0.11 0.09 0.08 0.08 0.08 0.07 0.07 0.06 0.04 0.03 0.02 0.02 0.02 0.02 0.03 0.05 0.05 0.05 0.05 0.04 0.05 0.04 0.04 0.04 0.04 0.04 0.04 0.04 0.03 0.04 0.04
0.03 0.03 0.04 0.05 0.06 0.07 0.08 0.10 0.14 0.16 0.16 0.13 0.11 0.10 0.09 0.09 0.08 0.06 0.06 0.06 0.04 0.03 0.02 0.02 0.02 0.02 0.03 0.03 0.05 0.05 0.05 0.04 0.04 0.04 0.04 0.04 0.04 0.04 0.04 0.05 0.04 0.04 0.03
0.03 0.03 0.03 0.04 0.05 0.05 0.06 0.07 0.10 0.12 0.12 0.11 0.10 0.10 0.09 0.08 0.08 0.07 0.05 0.04 0.04 0.04 0.03 0.02 0.02 0.03 0.04 0.04 0.03 0.04 0.05 0.04 0.04 0.04 0.04 0.04 0.04 0.04 0.04 0.04 0.05 0.04 0.04
0.03 0.02 0.02 0.03 0.03 0.04 0.05 0.05 0.07 0.08 0.08 0.07 0.08 0.08 0.08 0.08 0.07 0.07 0.06 0.04 0.04 0.03 0.03 0.02 0.03 0.04 0.04 0.04 0.04 0.03 0.04 0.04 0.04 0.04 0.04 0.04 0.04 0.04 0.04 0.04 0.04 0.04 0.04
0.02 0.02 0.02 0.02 0.03 0.03 0.04 0.05 0.06 0.07 0.07 0.06 0.05 0.05 0.07 0.07 0.07 0.07 0.06 0.05 0.05 0.04 0.03 0.03 0.04 0.04 0.04 0.04 0.04 0.04 0.03 0.03 0.03 0.03 0.03 0.03 0.03 0.03 0.03 0.04 0.04 0.04 0.04
0.02 0.03 0.03 0.03 0.03 0.04 0.05 0.05 0.06 0.07 0.06 0.05 0.05 0.05 0.05 0.06 0.06 0.06 0.06 0.05 0.05 0.05 0.04 0.04 0.04 0.05 0.05 0.05 0.05 0.04 0.04 0.03 0.03 0.03 0.03 0.03 0.03 0.03 0.03 0.03 0.04 0.04 0.05
0.03 0.03 0.04 0.04 0.04 0.05 0.05 0.06 0.07 0.07 0.07 0.07 0.06 0.06 0.05 0.06 0.06 0.06 0.06 0.05 0.04 0.04 0.04 0.05 0.05 0.05 0.05 0.05 0.04 0.04 0.04 0.04 0.03 0.03 0.03 0.03 0.03 0.03 0.03 0.03 0.03 0.04 0.03
0.02 0.03 0.03 0.04 0.05 0.05 0.05 0.06 0.07 0.07 0.07 0.07 0.07 0.07 0.06 0.06 0.06 0.06 0.05 0.05 0.05 0.05 0.04 0.05 0.05 0.05 0.05 0.04 0.04 0.04 0.04 0.04 0.03 0.03 0.03 0.02 0.03 0.03 0.03 0.03 0.03 0.03 0.03
0.03 0.03 0.03 0.04 0.04 0.05 0.05 0.05 0.06 0.06 0.06 0.06 0.07 0.07 0.07 0.06 0.06 0.06 0.05 0.05 0.05 0.05 0.05 0.05 0.05 0.05 0.04 0.04 0.04 0.04 0.04 0.04 0.04 0.03 0.03 0.03 0.02 0.02 0.03 0.03 0.03 0.03 0.04
0.03 0.03 0.03 0.04 0.04 0.04 0.04 0.05 0.05 0.05 0.06 0.06 0.07 0.06 0.06 0.06 0.06 0.06 0.05 0.05 0.06 0.06 0.05 0.05 0.05 0.05 0.05 0.06 0.04 0.04 0.04 0.05 0.04 0.04 0.04 0.03 0.02 0.02 0.02 0.03 0.03 0.03 0.03
0.02 0.02 0.02 0.03 0.04 0.04 0.04 0.04 0.04 0.04 0.05 0.05 0.05 0.06 0.06 0.05 0.05 0.06 0.06 0.06 0.07 0.06 0.06 0.05 0.05 0.05 0.06 0.06 0.06 0.05 0.05 0.05 0.05 0.05 0.04 0.03 0.03 0.02 0.03 0.03 0.03 0.03 0.03
0.02 0.03 0.02 0.02 0.02 0.03 0.03 0.03 0.03 0.04 0.04 0.04 0.05 0.06 0.05 0.03 0.04 0.06 0.07 0.08 0.08 0.08 0.07 0.07 0.06 0.06 0.07 0.07 0.07 0.06 0.06 0.05 0.05 0.05 0.05 0.05 0.04 0.03 0.03 0.03 0.03 0.03 0.03
0.02 0.02 0.02 0.01 0.02 0.02 0.03 0.03 0.03 0.03 0.03 0.03 0.04 0.05 0.04 0.03 0.04 0.05 0.06 0.07 0.07 0.08 0.08 0.08 0.09 0.08 0.08 0.08 0.08 0.07 0.07 0.06 0.05 0.04 0.05 0.05 0.04 0.04 0.03 0.03 0.03 0.03 0.03
0.02 0.01 0.01 0.01 0.01 0.02 0.02 0.02 0.03 0.03 0.03 0.03 0.03 0.04 0.03 0.03 0.04 0.04 0.05 0.06 0.06 0.07 0.07 0.08 0.09 0.09 0.09 0.09 0.08 0.08 0.08 0.07 0.06 0.05 0.05 0.05 0.04 0.04 0.04 0.04 0.04 0.05 0.05
0.02 0.02 0.01 0.01 0.01 0.01 0.01 0.02 0.02 0.02 0.02 0.02 0.02 0.02 0.02 0.03 0.03 0.04 0.05 0.05 0.05 0.05 0.06 0.06 0.07 0.07 0.07 0.08 0.08 0.08 0.09 0.09 0.08 0.07 0.06 0.06 0.05 0.05 0.05 0.05 0.05 0.05 0.05
0.02 0.01 0.01 0.01 0.01 0.01 0.01 0.02 0.02 0.02 0.02 0.01 0.01 0.02 0.02 0.02 0.02 0.03 0.03 0.04 0.04 0.04 0.05 0.05 0.05 0.05 0.05 0.06 0.07 0.07 0.08 0.08 0.07 0.07 0.07 0.06 0.06 0.06 0.05 0.05 0.05 0.05 0.05
0.01 0.01 0.01 0.01 0.01 0.01 0.01 0.01 0.01 0.01 0.01 0.01 0.01 0.01 0.01 0.01 0.01 0.02 0.02 0.02 0.02 0.03 0.03 0.03 0.04 0.04 0.04 0.04 0.05 0.05 0.06 0.06 0.06 0.07 0.07 0.07 0.06 0.05 0.05 0.05 0.05 0.04 0.04
0.01 0.01 0.01 0.01 0.01 0.01 0.01 0.01 0.01 0.01 0.01 0.01 0.01 0.01 0.01 0.01 0.01 0.01 0.02 0.02 0.02 0.02 0.02 0.02 0.03 0.03 0.03 0.03 0.03 0.03 0.03 0.04 0.04 0.05 0.06 0.06 0.06 0.05 0.05 0.05 0.04 0.04 0.04
MSLP
1020.00 1020.59 1021.14 1021.63 1022.05 1022.39 1022.69 1022.95 1023.20 1023.47 1023.74 1024.02 1024.29 1024.51 1024.69 1024.80 1024.85 1024.86 1024.85 1024.85 1024.89 1024.98 1025.10 1025.26 1025.42 1025.55 1025.62 1025.62 1025.52 1025.35 1025.12 1024.85 1024.59 1024.35 1024.14 1023.97 1023.82 1023.67 1023.49 1023.26 1022.97 1022.61 1022.20
1018.92 1019.53 1020.11 1020.64 1021.11 1021.52 1021.87 1022.20 1022.53 1022.85 1023.19 1023.52 1023.84 1024.11 1024.32 1024.47 1024.55 1024.58 1024.59 1024.61 1024.64 1024.72 1024.85 1025.00 1025.16 1025.30 1025.39 1025.41 1025.35 1025.22 1025.03 1024.80 1024.56 1024.33 1024.12 1023.94 1023.76 1023.57 1023.35 1023.08 1022.76 1022.37 1021.94
1017.77 1018.37 1018.96 1019.52 1020.03 1020.49 1020.90 1021.30 1021.70 1022.10 1022.50 1022.90 1023.28 1023.61 1023.87 1024.06 1024.18 1024.25 1024.28 1024.30 1024.34 1024.41 1024.53 1024.67 1024.82 1024.97 1025.07 1025.11 1025.08 1024.99 1024.83 1024.64 1024.43 1024.22 1024.01 1023.81 1023.61 1023.39 1023.13 1022.83 1022.47 1022.06 1021.61
1016.59 1017.16 1017.74 1018.30 1018.83 1019.33 1019.81 1020.27 1020.74 1021.21 1021.69 1022.16 1022.60 1023.00 1023.32 1023.56 1023.73 1023.82 1023.88 1023.92 1023.96 1024.03 1024.14 1024.27 1024.41 1024.55 1024.66 1024.73 1024.73 1024.67 1024.55 1024.40 1024.22 1024.02 1023.82 1023.61 1023.38 1023.14 1022.85 1022.51 1022.13 1021.70 1021.24
1015.42 1015.94 1016.49 1017.04 1017.58 1018.11 1018.62 1019.14 1019.67 1020.22 1020.76 1021.30 1021.81 1022.26 1022.64 1022.93 1023.14 1023.28 1023.37 1023.43 1023.48 1023.55 1023.65 1023.78 1023.92 1024.06 1024.17 1024.25 1024.27 1024.25 1024.17 1024.04 1023.89 1023.71 1023.52 1023.30 1023.07 1022.80 1022.49 1022.14 1021.74 1021.30 1020.84
1014.26 1014.74 1015.25 1015.78 1016.31 1016.85 1017.40 1017.96 1018.54 1019.14 1019.74 1020.33 1020.89 1021.39 1021.82 1022.16 1022.42 1022.60 1022.71 1022.80 1022.87 1022.95 1023.05 1023.18 1023.31 1023.45 1023.57 1023.66 1023.71 1023.70 1023.65 1023.55 1023.42 1023.26 1023.07 1022.86 1022.63 1022.35 1022.04 1021.69 1021.29 1020.85 1020.39
1013.16 1013.58 1014.05 1014.55 1015.07 1015.62 1016.18 1016.77 1017.39 1018.02 1018.66 1019.29 1019.89 1020.42 1020.88 1021.26 1021.55 1021.76 1021.91 1022.02 1022.12 1022.21 1022.32 1022.45 1022.59 1022.73 1022.86 1022.95 1023.01 1023.02 1022.98 1022.90 1022.78 1022.63 1022.46 1022.25 1022.02 1021.76 1021.46 1021.12 1020.74 1020.32 1019.87
1012.10 1012.48 1012.92 1013.40 1013.91 1014.46 1015.03 1015.64 1016.28 1016.93 1017.59 1018.24 1018.85 1019.39 1019.87 1020.27 1020.58 1020.81 1020.99 1021.13 1021.24 1021.36 1021.48 1021.62 1021.76 1021.90 1022.02 1022.12 1022.17 1022.18 1022.15 1022.07 1021.96 1021.82 1021.64 1021.45 1021.23 1020.98 1020.70 1020.39 1020.05 1019.66 1019.24
1011.12 1011.47 1011.89 1012.35 1012.86 1013.42 1014.00 1014.62 1015.27 1015.93 1016.60 1017.24 1017.84 1018.39 1018.87 1019.26 1019.58 1019.83 1020.02 1020.18 1020.32 1020.45 1020.58 1020.72 1020.86 1021.00 1021.11 1021.19 1021.23 1021.23 1021.18 1021.09 1020.97 1020.82 1020.64 1020.45 1020.25 1020.02 1019.77 1019.50 1019.19 1018.85 1018.48
1010.22 1010.57 1010.98 1011.45 1011.97 1012.53 1013.14 1013.77 1014.42 1015.09 1015.74 1016.37 1016.96 1017.49 1017.95 1018.34 1018.65 1018.90 1019.10 1019.27 1019.42 1019.55 1019.69 1019.83 1019.96 1020.08 1020.17 1020.22 1020.24 1020.20 1020.13 1020.01 1019.86 1019.69 1019.51 1019.32 1019.12 1018.91 1018.69 1018.45 1018.19 1017.89 1017.56
1009.42 1009.77 1010.20 1010.69 1011.23 1011.82 1012.44 1013.10 1013.76 1014.42 1015.07 1015.69 1016.25 1016.76 1017.20 1017.56 1017.86 1018.10 1018.30 1018.47 1018.61 1018.75 1018.88 1019.00 1019.11 1019.20 1019.26 1019.28 1019.25 1019.17 1019.05 1018.90 1018.71 1018.51 1018.30 1018.10 1017.90 1017.70 1017.49 1017.28 1017.05 1016.80 1016.50
1008.72 1009.10 1009.55 1010.07 1010.65 1011.27 1011.93 1012.60 1013.28 1013.95 1014.59 1015.19 1015.74 1016.22 1016.63 1016.98 1017.26 1017.49 1017.67 1017.82 1017.96 1018.08 1018.19 1018.28 1018.36 1018.41 1018.43 1018.39 1018.31 1018.19 1018.02 1017.81 1017.58 1017.34 1017.10 1016.87 1016.66 1016.45 1016.25 1016.05 1015.84 1015.60 1015.32
1008.13 1008.54 1009.03 1009.59 1010.21 1010.87 1011.56 1012.26 1012.96 1013.63 1014.27 1014.87 1015.40 1015.86 1016.25 1016.58 1016.83 1017.04 1017.21 1017.34 1017.45 1017.54 1017.62 1017.68 1017.71 1017.72 1017.68 1017.60 1017.46 1017.28 1017.06 1016.81 1016.54 1016.26 1015.98 1015.71 1015.46 1015.23 1015.02 1014.81 1014.59 1014.35 1014.08
1007.65 1008.09 1008.62 1009.22 1009.88 1010.58 1011.30 1012.02 1012.74 1013.42 1014.06 1014.65 1015.18 1015.62 1016.00 1016.30 1016.54 1016.73 1016.87 1016.98 1017.06 1017.11 1017.15 1017.16 1017.15 1017.10 1017.02 1016.88 1016.70 1016.48 1016.21 1015.92 1015.60 1015.28 1014.96 1014.66 1014.37 1014.10 1013.85 1013.61 1013.36 1013.09 1012.80
1007.27 1007.75 1008.31 1008.94 1009.63 1010.35 1011.09 1011.84 1012.56 1013.26 1013.90 1014.49 1015.00 1015.44 1015.80 1016.09 1016.32 1016.48 1016.60 1016.67 1016.71 1016.73 1016.72 1016.69 1016.63 1016.53 1016.40 1016.22 1016.01 1015.75 1015.46 1015.13 1014.79 1014.43 1014.08 1013.73 1013.40 1013.08 1012.78 1012.48 1012.18 1011.88 1011.54
1006.99 1007.49 1008.08 1008.73 1009.44 1010.17 1010.93 1011.68 1012.40 1013.09 1013.73 1014.31 1014.82 1015.25 1015.60 1015.88 1016.08 1016.23 1016.32 1016.36 1016.37 1016.34 1016.29 1016.21 1016.10 1015.97 1015.81 1015.61 1015.37 1015.09 1014.78 1014.44 1014.08 1013.70 1013.31 1012.92 1012.54 1012.16 1011.80 1011.43 1011.07 1010.70 1010.31
1006.81 1007.33 1007.93 1008.59 1009.30 1010.04 1010.79 1011.53 1012.24 1012.92 1013.54 1014.11 1014.60 1015.01 1015.35 1015.62 1015.81 1015.93 1016.00 1016.01 1015.98 1015.92 1015.82 1015.71 1015.57 1015.41 1015.22 1015.00 1014.75 1014.47 1014.16 1013.81 1013.44 1013.04 1012.62 1012.18 1011.75 1011.30 1010.86 1010.43 1009.99 1009.55 1009.10
1006.72 1007.26 1007.87 1008.54 1009.25 1009.98 1010.70 1011.42 1012.11 1012.75 1013.35 1013.89 1014.36 1014.75 1015.07 1015.32 1015.49 1015.60 1015.64 1015.63 1015.57 1015.47 1015.34 1015.19 1015.02 1014.84 1014.64 1014.42 1014.17 1013.89 1013.57 1013.22 1012.83 1012.41 1011.95 1011.46 1010.96 1010.45 1009.92 1009.40 1008.88 1008.37 1007.86
1006.73 1007.29 1007.92 1008.59 1009.29 1010.00 1010.70 1011.38 1012.03 1012.64 1013.20 1013.70 1014.14 1014.51 1014.81 1015.03 1015.18 1015.27 1015.28 1015.24 1015.15 1015.03 1014.87 1014.69 1014.50 1014.30 1014.09 1013.86 1013.61 1013.32 1013.00 1012.64 1012.22 1011.76 1011.25 1010.70 1010.11 1009.50 1008.89 1008.28 1007.67 1007.08 1006.52
1006.86 1007.45 1008.10 1008.78 1009.47 1010.16 1010.82 1011.47 1012.07 1012.63 1013.14 1013.60 1013.99 1014.33 1014.60 1014.79 1014.92 1014.98 1014.97 1014.91 1014.79 1014.63 1014.45 1014.25 1014.03 1013.81 1013.58 1013.34 1013.07 1012.77 1012.42 1012.02 1011.56 1011.04 1010.45 1009.81 1009.12 1008.41 1007.69 1006.97 1006.28 1005.61 1004.99
1007.11 1007.74 1008.41 1009.10 1009.78 1010.45 1011.08 1011.68 1012.23 1012.74 1013.20 1013.61 1013.96 1014.25 1014.48 1014.65 1014.75 1014.78 1014.74 1014.65 1014.50 1014.32 1014.10 1013.87 1013.63 1013.38 1013.12 1012.85 1012.55 1012.21 1011.81 1011.35 1010.81 1010.19 1009.50 1008.74 1007.94 1007.10 1006.25 1005.42 1004.63 1003.90 1003.22
1007.49 1008.15 1008.85 1009.54 1010.22 1010.86 1011.46 1012.02 1012.52 1012.97 1013.37 1013.73 1014.03 1014.28 1014.47 1014.60 1014.67 1014.66 1014.60 1014.47 1014.29 1014.07 1013.82 1013.56 1013.28 1012.98 1012.68 1012.36 1012.00 1011.59 1011.12 1010.57 1009.93 1009.19 1008.37 1007.47 1006.52 1005.54 1004.56 1003.61 1002.72 1001.91 1001.19
1007.98 1008.68 1009.39 1010.09 1010.75 1011.37 1011.93 1012.43 1012.88 1013.27 1013.62 1013.92 1014.17 1014.38 1014.52 1014.61 1014.64 1014.60 1014.50 1014.33 1014.11 1013.85 1013.56 1013.25 1012.91 1012.57 1012.21 1011.82 1011.38 1010.89 1010.31 1009.65 1008.88 1008.01 1007.04 1005.98 1004.88 1003.75 1002.63 1001.56 1000.57 999.69 998.92
1008.56 1009.28 1009.99 1010.67 1011.31 1011.89 1012.40 1012.86 1013.25 1013.59 1013.88 1014.12 1014.32 1014.47 1014.58 1014.62 1014.60 1014.52 1014.37 1014.16 1013.90 1013.59 1013.24 1012.87 1012.48 1012.07 1011.64 1011.16 1010.64 1010.04 1009.36 1008.57 1007.66 1006.65 1005.53 1004.33 1003.08 1001.81 1000.56 999.38 998.30 997.34 996.54
1009.21 1009.91 1010.60 1011.26 1011.85 1012.38 1012.83 1013.23 1013.56 1013.84 1014.07 1014.26 1014.41 1014.51 1014.56 1014.56 1014.49 1014.36 1014.16 1013.90 1013.58 1013.22 1012.82 1012.38 1011.93 1011.44 1010.93 1010.37 1009.74 1009.05 1008.25 1007.34 1006.32 1005.18 1003.93 1002.60 1001.22 999.83 998.48 997.20 996.05 995.04 994.21
1009.89 1010.56 1011.20 1011.79 1012.32 1012.78 1013.18 1013.50 1013.77 1013.99 1014.16 1014.30 1014.39 1014.44 1014.44 1014.39 1014.27 1014.09 1013.83 1013.52 1013.14 1012.72 1012.25 1011.75 1011.22 1010.66 1010.06 1009.42 1008.71 1007.92 1007.03 1006.02 1004.90 1003.66 1002.32 1000.90 999.43 997.96 996.54 995.20 993.99 992.95 992.10
Thickness
5457 5463 5470 5477 5482 5488 5495 5501 5506 5510 5513 5517 5520 5522 5525 5527 5529 5531 5533 5535 5537 5539 5542 5544 5547 5549 5552 5553 5554 5556 5558 5561 5562 5563 5561 5560 5559 5559 5558 5557 5557 5557 5556
5448 5454 5460 5467 5473 5479 5486 5491 5496 5501 5505 5509 5511 5514 5516 5518 5520 5522 5525 5526 5529 5531 5533 5535 5538 5540 5543 5545 5546 5547 5549 5552 5553 5553 5551 5550 5550 5550 5549 5548 5547 5547 5546
5439 5445 5451 5458 5464 5471 5476 5481 5486 5491 5495 5498 5501 5504 5505 5507 5510 5513 5515 5518 5520 5522 5524 5527 5530 5532 5535 5536 5538 5539 5540 5541 5543 5543 5543 5541 5540 5539 5538 5537 5537 5536 5536
5432 5437 5443 5450 5455 5461 5466 5472 5477 5481 5485 5488 5490 5493 5495 5497 5499 5502 5505 5508 5510 5512 5515 5518 5521 5524 5526 5527 5529 5530 5531 5532 5532 5533 5533 5532 5531 5529 5528 5528 5527 5526 5525
5423 5429 5434 5440 5445 5450 5456 5462 5467 5470 5474 5476 5479 5481 5484 5487 5489 5491 5494 5498 5501 5503 5505 5508 5511 5514 5516 5517 5519 5521 5522 5522 5522 5522 5522 5522 5521 5519 5519 5518 5517 5516 5515
5414 5420 5426 5431 5437 5442 5447 5452 5457 5460 5462 5464 5467 5471 5474 5477 5479 5481 5484 5487 5490 5493 5495 5498 5501 5503 5505 5506 5508 5510 5511 5513 5513 5514 5514 5514 5514 5512 5511 5508 5507 5506 5507
5405 5411 5417 5422 5428 5433 5438 5442 5447 5450 5452 5455 5458 5461 5465 5467 5469 5471 5473 5477 5480 5483 5486 5489 5491 5494 5495 5497 5499 5499 5500 5502 5503 5505 5505 5506 5505 5504 5502 5499 5497 5496 5497
5396 5401 5407 5413 5419 5424 5428 5433 5437 5440 5443 5446 5448 5451 5453 5456 5458 5460 5462 5465 5469 5472 5476 5479 5482 5484 5485 5487 5489 5490 5491 5492 5493 5494 5496 5496 5495 5493 5491 5490 5487 5484 5482
5387 5393 5399 5404 5409 5415 5420 5425 5428 5431 5435 5437 5440 5442 5444 5446 5447 5450 5451 5454 5458 5462 5466 5469 5472 5474 5476 5477 5479 5480 5482 5482 5482 5482 5483 5483 5482 5481 5478 5476 5474 5472 5472
5378 5383 5389 5395 5400 5406 5411 5415 5419 5422 5425 5428 5430 5432 5435 5437 5438 5440 5441 5445 5449 5453 5456 5459 5461 5464 5465 5465 5468 5470 5471 5472 5472 5471 5470 5470 5469 5468 5467 5466 5465 5463 5461
5369 5375 5381 5387 5392 5397 5402 5406 5410 5413 5415 5418 5420 5421 5424 5427 5429 5431 5432 5436 5440 5444 5447 5450 5452 5453 5454 5455 5457 5459 5461 5460 5460 5459 5459 5458 5457 5456 5455 5454 5453 5452 5450
5362 5368 5374 5378 5383 5387 5392 5396 5400 5403 5406 5408 5410 5411 5413 5416 5419 5422 5424 5427 5431 5435 5439 5441 5443 5443 5443 5443 5445 5446 5446 5446 5446 5446 5446 5446 5445 5443 5442 5440 5439 5438 5436
5354 5360 5365 5370 5374 5379 5383 5387 5390 5393 5397 5400 5401 5403 5405 5407 5411 5413 5415 5418 5421 5425 5429 5431 5431 5431 5432 5432 5433 5434 5433 5433 5434 5433 5433 5432 5431 5430 5428 5426 5425 5424 5422
5346 5351 5356 5360 5365 5369 5373 5377 5380 5383 5387 5390 5392 5394 5396 5399 5401 5403 5405 5406 5408 5412 5415 5417 5418 5419 5419 5420 5420 5420 5421 5422 5422 5421 5420 5418 5416 5415 5414 5414 5412 5411 5409
5338 5342 5346 5350 5355 5360 5363 5366 5369 5372 5376 5380 5383 5384 5387 5389 5391 5393 5396 5397 5399 5402 5403 5404 5405 5407 5407 5408 5408 5409 5408 5408 5408 5408 5406 5404 5403 5402 5401 5400 5399 5398 5397
5328 5333 5337 5341 5345 5349 5353 5356 5358 5361 5364 5367 5371 5374 5376 5379 5381 5382 5384 5387 5388 5390 5392 5394 5395 5396 5396 5397 5397 5397 5397 5396 5396 5394 5393 5392 5391 5390 5389 5388 5387 5386 5385
5318 5322 5327 5331 5335 5339 5342 5345 5348 5351 5354 5356 5359 5362 5365 5367 5369 5370 5372 5374 5375 5377 5379 5381 5382 5383 5384 5384 5384 5384 5384 5384 5383 5381 5380 5379 5378 5377 5376 5376 5375 5374 5373
5309 5312 5316 5320 5324 5327 5331 5334 5337 5340 5343 5346 5348 5350 5352 5354 5356 5358 5359 5361 5363 5364 5366 5368 5369 5369 5370 5371 5372 5372 5372 5371 5370 5370 5369 5367 5366 5365 5364 5364 5363 5362 5361
5299 5303 5306 5309 5313 5316 5319 5322 5325 5328 5331 5333 5335 5337 5339 5342 5344 5345 5347 5349 5351 5352 5353 5355 5356 5357 5357 5358 5359 5359 5359 5359 5358 5358 5358 5356 5355 5355 5354 5353 5351 5350 5348
5288 5290 5294 5298 5301 5304 5307 5310 5313 5315 5318 5320 5323 5324 5327 5329 5331 5332 5334 5336 5338 5340 5341 5343 5344 5345 5345 5346 5346 5347 5347 5347 5346 5346 5346 5346 5345 5344 5343 5342 5341 5339 5338
5278 5281 5283 5286 5289 5291 5294 5297 5300 5303 5305 5308 5309 5311 5314 5316 5318 5320 5321 5323 5325 5327 5328 5330 5331 5332 5333 5334 5334 5335 5335 5335 5335 5335 5334 5334 5334 5333 5332 5331 5330 5328 5327
5267 5270 5273 5275 5278 5279 5282 5285 5288 5291 5293 5295 5298 5299 5301 5303 5305 5307 5309 5310 5312 5314 5315 5317 5319 5320 5320 5321 5322 5322 5323 5324 5324 5323 5322 5322 5322 5322 5321 5321 5320 5319 5317
5257 5259 5262 5264 5266 5269 5271 5273 5276 5279 5281 5283 5285 5287 5289 5291 5293 5295 5296 5298 5300 5302 5303 5305 5306 5307 5308 5309 5309 5310 5311 5311 5312 5312 5312 5312 5311 5311 5311 5311 5310 5309 5307
5247 5249 5251 5253 5256 5258 5260 5262 5264 5267 5269 5271 5273 5275 5277 5279 5281 5283 5284 5286 5288 5289 5291 5292 5294 5295 5296 5297 5298 5298 5299 5300 5300 5301 5301 5302 5301 5301 5301 5300 5300 5298 5297
5237 5239 5241 5243 5245 5247 5249 5251 5253 5255 5257 5260 5262 5264 5265 5267 5269 5271 5273 5274 5276 5278 5279 5280 5282 5283 5284 5285 5286 5287 5288 5289 5290 5290 5291 5291 5291 5291 5290 5290 5289 5288 5287
5228 5230 5231 5233 5235 5237 5239 5241 5242 5244 5246 5249 5251 5252 5254 5256 5258 5260 5261 5263 5264 5266 5267 5269 5270 5271 5272 5274 5276 5277 5278 5279 5279 5280 5280 5281 5282 5281 5280 5280 5279 5278 5277